Regional Weather Roundup
Issued by NWS

Home | Current Version | Previous Version | Graphics & Text | Print | Product List | Glossary On
Versions: 1 2 3 4 5 6 7 8 9 10 11 12 13 14 15 16 17 18 19 20 21 22 23 24 25 26 27 28 29 30 31 32 33 34 35 36 37 38 39 40 41 42 43 44 45 46 47 48 49 50
000
ASUS43 KLSX 171007
RWRMO

WEATHER SUMMARY FOR MISSOURI
NATIONAL WEATHER SERVICE SPRINGFIELD MO
400 AM CST FRI NOV 17 2017

NOTE: "FAIR" INDICATES FEW OR NO CLOUDS BELOW 12,000 FEET WITH NO
       SIGNIFICANT WEATHER AND/OR OBSTRUCTIONS TO VISIBILITY.
       CURRENT SKY AND/OR WEATHER CONDITIONS ARE NOT AVAILABLE FOR
       CHILLICOTHE AND FARMINGTON.

MOZ001>031-035>038-043-044-053-054-171100-
...NORTHERN AND WESTERN MISSOURI...

CITY           SKY/WX    TMP DP  RH WIND       PRES   REMARKS
KANSAS CTY INT CLOUDY    54  46  74 S18       29.84F
KANSAS C DTWN  CLOUDY    56  44  64 S12G22    29.86F
LEE`S SUMMIT   CLOUDY    52  42  69 S10       29.88F
ST JOSEPH      CLOUDY    51  39  63 S13       29.82F
CHILLICOTHE      N/A     45  34  65 SE9       29.91F
KIRKSVILLE     CLOUDY    40  35  83 SE15      29.95F

$$
MOZ066>068-077>081-088>096-101>105-171100-
...SOUTHWEST MISSOURI...

CITY           SKY/WX    TMP DP  RH WIND       PRES   REMARKS
SPRINGFIELD    CLOUDY    51  43  74 SE17      29.96F
JOPLIN         CLOUDY    59  55  87 S13       29.92F
BRANSON        CLOUDY    48  43  81 SE9       30.02F

$$
MOZ032>034-039>042-045>050-055>058-069>072-171100-
...CENTRAL MISSOURI...

CITY           SKY/WX    TMP DP  RH WIND       PRES   REMARKS
COLUMBIA       CLOUDY    43  35  73 SE13      29.98F
JEFFERSON CITY CLOUDY    44  35  70 E12       30.00F
ROLLA          CLOUDY    43  36  76 S14       30.02F
SEDALIA        CLOUDY    50  41  71 SE14      29.93F
WHITEMAN AFB   CLOUDY    51  40  66 S12       29.87F
WARRENSBURG    CLOUDY    50  39  66 SE9       29.90F
OSAGE BEACH    CLOUDY    48  40  73 S8        29.99F

$$
MOZ051-052-059>065-171100-
...EAST CENTRAL MISSOURI...

CITY           SKY/WX    TMP DP  RH WIND       PRES   REMARKS
ST LOUIS INTL  MOCLDY    34  32  92 SE16      30.08F WCI  24
SPIRIT OF STL  CLOUDY    35  32  88 SE8       30.08F WCI  29
ST CHARLES     CLOUDY    33  31  92 E12       30.09F FOG     WCI  24

$$
MOZ072>076-082>087-097>100-106>115-171100-
...SOUTH CENTRAL AND SOUTHEAST MISSOURI...

CITY           SKY/WX    TMP DP  RH WIND       PRES   REMARKS
CAPE GIRARDEAU CLOUDY    31  29  92 E6        30.16F FOG     WCI  25
FARMINGTON     CLOUDY    32  31  96 SE8       30.10F FOG     WCI  25
POPLAR BLUFF   MOCLDY    34  33  96 CALM      30.15S FOG
WEST PLAINS    CLOUDY    44  36  73 SE7       30.09S

$$



USA.gov is the U.S. government's official web portal to all federal, state and local government web resources and services.